This is the latest recevied weather packets stored in our database for station/object W4SNA-4. If no packets are shown the sender has not sent any weather packets the latest 10 day(s).
| Time | Temp. | Humidity | Pressure | Rain* | Wind** | Luminosity | Snow |
|---|---|---|---|---|---|---|---|
| 1787950586 | 22.22° C | 79% | 1011.8 hPa | 0 mm | - | - | - |
| 1787950284 | 22.22° C | 78% | 1012.5 hPa | 0 mm | - | - | - |
| 1787949984 | 22.78° C | 77% | 1012.5 hPa | 0 mm | - | - | - |
| 1787949691 | 22.78° C | 75% | 1012.5 hPa | 0 mm | - | - | - |
| 1787949384 | 22.78° C | 74% | 1012.2 hPa | 0 mm | - | - | - |
| 1787949084 | 23.33° C | 73% | 1012.2 hPa | 0 mm | - | - | - |
| 1787948784 | 23.33° C | 71% | 1012.2 hPa | 0 mm | - | - | - |
| 1787948486 | 23.89° C | 69% | 1012.1 hPa | 0 mm | - | - | - |
| 1787948184 | 24.44° C | 70% | 1012.1 hPa | 0 mm | - | - | - |
| 1787947885 | 25° C | 69% | 1012.1 hPa | 0 mm | - | - | - |
| 1787947584 | 26.67° C | 68% | 1012.4 hPa | 0 mm | - | - | - |
| 1787947284 | 28.33° C | 74% | 1012.4 hPa | 0 mm | - | - | - |
| 1787946984 | 28.89° C | 74% | 1012.4 hPa | 0 mm | - | - | - |
| 1787946684 | 28.89° C | 73% | 1012.3 hPa | 0 mm | - | - | - |
| 1787946384 | 29.44° C | 72% | 1012.3 hPa | 0 mm | - | - | - |
| 1787946086 | 29.44° C | 74% | 1012.3 hPa | 0 mm | - | - | - |
| 1787945784 | 29.44° C | 72% | 1012.2 hPa | 0 mm | - | - | - |
| 1787945484 | 28.89° C | 73% | 1012.2 hPa | 0 mm | - | - | - |
| 1787945187 | 28.89° C | 74% | 1012.2 hPa | 0 mm | - | - | - |
| 1787944884 | 28.89° C | 74% | 1012 hPa | 0 mm | - | - | - |
| 1787944588 | 28.89° C | 74% | 1012 hPa | 0 mm | - | - | - |
| 1787944284 | 28.89° C | 72% | 1012 hPa | 0 mm | - | - | - |
| 1787943984 | 28.89° C | 74% | 1012.3 hPa | 0 mm | - | - | - |
| 1787943683 | 28.89° C | 71% | 1012.3 hPa | 0 mm | - | - | - |
| 1787943384 | 28.89° C | 72% | 1012.3 hPa | 0 mm | - | - | - |
* Rain latest hour (hover to see other rain measurements)
** Current wind speed in m/s (hover to see current wind gust speed)